Regional Weather Roundup
Issued by NWS

Home | Current Version | Previous Version | Text Only | Print | Product List | Glossary Off
Versions: 1 2 3 4 5 6 7 8 9 10 11 12 13 14 15 16 17 18 19 20 21 22 23 24 25 26 27 28

000
ASUS45 KBOU 180110
RWRCO

WEATHER ROUNDUP FOR COLORADO
NATIONAL WEATHER SERVICE DENVER/BOULDER CO
600 PM MST FRI NOV 17 2017

NOTE: "FAIR" INDICATES FEW OR NO CLOUDS BELOW 12000 FEET WITH NO
SIGNIFICANT WEATHER AND/OR OBSTRUCTIONS TO VISIBILITY.

COZ001>005-013-030-031-180200-
...NORTHWEST COLORADO...

CITY           SKY/WX    TMP DP  RH WIND       PRES   REMARKS
CRAIG          LGT SNOW  33  28  81 NW10G20   29.93R WCI  25
HAYDEN         LGT SNOW  30  28  92 NW20G32   29.93R FOG     WCI  17
MEEKER         SNOW      33  31  92 MISG      29.91R VSB 1/2
RABBIT EARS PA HVY SNOW  21  21 100 MISG      29.82R VSB 1/4
STEAMBOAT SPGS CLOUDY    31  31  99 W10       29.86R VSB 3/4 WCI  22
WALDEN         CLOUDY    30  27  86 NW9       29.82R WCI  22
$$

COZ006>008-011-180200-
...WEST CENTRAL VALLEYS...

CITY           SKY/WX    TMP DP  RH WIND       PRES   REMARKS
GRAND JUNCTION CLOUDY    47  40  76 W15       29.80R
MONTROSE       FAIR      55  34  45 SW15G32   29.74F
EAGLE          LGT RAIN  42  35  76 SW8       29.78R
RIFLE          LGT RAIN  42  34  73 W18G31    29.81R
DELTA            N/A     50  41  71 NW32      29.78R
NUCLA          MOCLDY    57  28  33 SW22G32   29.80
$$

COZ017>023-064>068-180200-
...SOUTHWEST COLORADO...

CITY           SKY/WX    TMP DP  RH WIND       PRES   REMARKS
DURANGO        MOCLDY    50  36  58 SW23G32   29.88F
CORTEZ         MOCLDY    55  35  47 SW26G35   29.87S
PAGOSA SPRINGS LGT RAIN  47  35  62 SW21G28   29.89F
TELLURIDE      MOCLDY    43  28  56 W21G33    29.93S
WOLF CREEK PAS HVY SNOW  28  28 100 SW32G54   29.93R VSB 1/4 WCI  12
$$

COZ009-010-012-014-032>034-037-058>063-180200-
...CENTRAL COLORADO...

CITY           SKY/WX    TMP DP  RH WIND       PRES   REMARKS
ASPEN          RAIN      37  35  92 N12G18    29.76R FOG
BUENA VISTA    CLOUDY    39  34  80 S20G25    29.74S
COPPER MTN     LGT SNOW  30  27  86 MISG      29.82S VSB 3/4
BERTHOUD PASS  HVY SNOW  19   9  63 MISG      29.78R VSB 1/4
COTTONWOOD PAS LGT SNOW  41  32  70 W18G30    29.78F
GUNNISON       FAIR      44  32  62 W8        29.76F
KREMMLING      LGT SNOW  37  32  81 W7        29.82R
LEADVILLE      LGT SNOW  31  28  89 N8        29.76S FOG     WCI  23
MONARCH PASS   CLOUDY    28  27  93 W47G70    29.89F WCI  10
SALIDA         CLOUDY    45  35  68 W7        29.82S
SUNLIGHT       CLOUDY    27  25  93 MISG      29.86R VSB 1/4
WILKERSON PASS MOCLDY    30  27  86 SW12G22   29.83S WCI  21
$$

COZ069>075-180200-
...SAN LUIS VALLEY/SANGRE DE CRISTO MOUNTAINS...

CITY           SKY/WX    TMP DP  RH WIND       PRES   REMARKS
ALAMOSA        FAIR      40  33  76 SW9       29.82F
DEL NORTE      FAIR      42  33  70 SW16G22   29.82S
LA VETA PASS   CLOUDY    34  32  93 S26G49      N/A  WCI  21
SAGUACHE       FAIR      45  28  53 W13       29.78S
$$

COZ035-036-038>040-180200-
...NORTHERN COLORADO FRONT RANGE...

CITY           SKY/WX    TMP DP  RH WIND       PRES   REMARKS
DENVER INTL AP LGT RAIN  40  35  83 NE18      29.72R
DMNS CITY PARK   N/A     41  39  92 NE15G23   29.71R
AURORA         LGT RAIN  40  39  94 NE21G28   29.71R
FRONT RANGE AP LGT RAIN N/A  37   0 N21G29    29.73R
ERIE MUNI ARPT CLOUDY    42  37  81 NE8       29.77R
BOULDER MUN AP MOCLDY    41  34  75 N5        29.72R
CENTENNIAL     MOCLDY    44  36  73 NE18G30   29.70R
BROOMFIELD     CLOUDY    41  36  81 N6G25     29.71R
FORT COLLINS   LGT RAIN  42  35  76 NE16      29.70R
LONGMONT       LGT RAIN  44  37  74 NE5       29.73R
$$

COZ041-046-047-076>085-087-088-180200-
...PIKES PEAK/PALMER DIVIDE AND SOUTHERN FOOTHILLS...

CITY           SKY/WX    TMP DP  RH WIND       PRES   REMARKS
COLO. SPRINGS  FAIR      56  27  32 W20       29.67S
A. F. ACADEMY  FAIR      53  26  35 SW8G22    29.67S
SCHRIEVER AFB  FAIR      55  24  30 W25       29.67S
CHEYENNE MTN   FAIR      51  25  36 E9        29.63F
ELLICOTT       NOT AVBL
FALCON         FAIR      48  24  38 W7        29.70R
FORT CARSON    FAIR      57  26  30 W17       29.64S
LIMON          CLOUDY    49  31  49 N23       29.66R
MONUMENT HILL  FAIR      37  32  81 NE21G26   29.73R
CANON CITY     MOCLDY    57  32  38 NW10      29.64R
WALSENBURG     FAIR      55  36  47 SW17G29   29.73S
TRINIDAD       FAIR      57  33  40 W17       29.72S
$$

COZ042>045-048>051-090-091-180200-
...NORTHEAST COLORADO...

CITY           SKY/WX    TMP DP  RH WIND       PRES   REMARKS
GREELEY ARPT   LGT RAIN  43  37  79 N13       29.72R
AKRON          MOCLDY    44  36  73 N16       29.70R
BURLINGTON     FAIR      46  31  55 N8        29.60R
WRAY           NOT AVBL
YUMA           FAIR      43  30  61 N12       29.64R
STERLING       LGT RAIN  45  41  87 N14       29.69R
HOLYOKE        FAIR      45  32  61 N15       29.66R
FORT MORGAN    MOCLDY    42  34  74 N18G30    29.73R
$$

COZ086-089-092>099-180200-
...SOUTHEAST COLORADO...

CITY           SKY/WX    TMP DP  RH WIND       PRES   REMARKS
PUEBLO         FAIR      62  32  32 SW18      29.60S
LA JUNTA       FAIR      64  33  31 SW29G38   29.57F
LAMAR          FAIR      67  32  27 W22G32    29.54S
SPRINGFIELD      N/A     60  32  34 SW10      29.64S
$$




USA.gov is the U.S. government's official web portal to all federal, state and local government web resources and services.